�N����,����,�~����,�C��,���x,�C��,����,���ϕ���,�ő�u�ԕ���,�ő厞����,���˗�,�I�_���x,�n�����x,�ő啗���N��,DTYPE
"16/10/09","00:10",0.0,24.1,87.5,1001.2,315.2,0.6,1.0,7.4,0.00,21.9,23.8,"00:01:12",1
"16/10/09","00:20",0.0,23.9,88.1,1000.8,326.8,0.6,1.0,337.8,0.00,21.8,23.7,"00:13:52",1
"16/10/09","00:30",0.0,23.8,88.5,1000.5,284.4,0.7,1.7,241.5,0.00,21.8,23.7,"00:25:52",1
"16/10/09","00:40",0.0,24.3,87.8,1000.3,253.8,0.7,2.1,231.2,0.00,22.2,23.8,"00:36:08",1
"16/10/09","00:50",0.0,24.6,85.9,1000.5,244.2,0.2,1.4,205.8,0.00,22.1,23.7,"00:44:56",1
"16/10/09","01:00",0.0,24.7,84.8,1000.3,179.4,0.6,2.4,192.1,0.00,22.0,23.7,"00:55:20",1
"16/10/09","01:10",0.0,24.7,84.0,1000.0,255.9,0.5,1.2,85.3,0.00,21.9,24.0,"01:09:24",1
"16/10/09","01:20",0.0,24.7,84.9,1000.0,243.0,0.3,1.0,345.0,0.00,22.0,24.0,"01:19:04",1
"16/10/09","01:30",0.0,24.4,86.7,999.8,340.9,1.1,1.9,347.3,0.00,22.1,23.8,"01:22:32",1
"16/10/09","01:40",0.4,24.1,88.1,999.6,332.8,0.8,2.0,342.7,0.00,22.0,23.9,"01:34:48",1
"16/10/09","01:50",0.8,23.9,89.2,999.3,352.6,1.2,2.1,2.9,0.00,22.1,23.7,"01:42:48",1
"16/10/09","02:00",0.8,23.7,90.3,999.6,359.0,1.2,2.2,353.2,0.00,22.1,23.7,"01:55:28",1
"16/10/09","02:10",0.4,23.8,90.8,999.3,20.8,1.3,2.4,76.2,0.00,22.2,23.6,"02:07:04",1
"16/10/09","02:20",0.0,23.7,91.2,999.8,39.6,1.0,2.0,90.1,0.00,22.2,23.7,"02:11:20",1
"16/10/09","02:30",0.0,23.8,91.0,1000.0,324.2,0.8,3.1,25.4,0.00,22.3,23.7,"02:28:32",1
"16/10/09","02:40",0.0,24.0,90.1,999.8,278.6,0.7,4.0,112.7,0.00,22.3,23.7,"02:37:04",1
"16/10/09","02:50",0.0,24.1,89.2,1000.0,23.7,0.6,1.7,231.6,0.00,22.2,23.7,"02:45:04",1
"16/10/09","03:00",1.4,23.8,89.5,999.6,9.4,1.1,2.1,351.8,0.00,22.0,23.8,"02:57:04",1
"16/10/09","03:10",0.4,23.5,90.2,999.6,3.0,0.8,1.7,359.5,0.00,21.8,23.7,"03:06:32",1
"16/10/09","03:20",0.2,23.3,91.2,999.6,350.9,0.5,1.3,2.1,0.00,21.8,23.7,"03:10:48",1
"16/10/09","03:30",0.2,23.1,91.9,999.6,338.5,0.1,0.6,329.3,0.00,21.8,23.6,"03:20:24",1
"16/10/09","03:40",0.0,23.0,92.4,999.6,315.7,0.0,0.3,355.3,0.00,21.7,23.5,"03:30:32",1
"16/10/09","03:50",0.6,23.0,92.9,999.6,320.7,0.5,1.2,25.8,0.00,21.8,23.6,"03:49:06",1
"16/10/09","04:00",2.6,22.4,91.0,1000.3,324.8,1.5,4.1,19.0,0.00,20.9,23.3,"03:57:26",1
"16/10/09","04:10",2.2,21.6,90.7,1000.5,324.3,1.2,3.7,349.4,0.00,20.1,23.5,"04:06:16",1
"16/10/09","04:20",1.2,21.1,91.6,1000.5,294.2,0.8,2.6,346.1,0.00,19.7,23.3,"04:10:56",1
"16/10/09","04:30",0.8,20.7,92.0,1000.0,289.5,0.3,1.4,234.5,0.00,19.4,23.3,"04:22:32",1
"16/10/09","04:40",0.2,20.4,92.3,999.8,319.1,0.7,2.1,328.2,0.00,19.1,23.4,"04:39:20",1
"16/10/09","04:50",0.4,20.3,92.5,1000.5,331.8,0.8,2.5,6.6,0.00,19.1,23.1,"04:41:28",1
"16/10/09","05:00",0.0,20.2,92.5,1000.8,354.0,0.5,2.1,350.9,0.00,19.0,22.9,"04:53:04",1
"16/10/09","05:10",0.2,20.2,92.3,1000.8,359.2,1.0,2.2,234.7,0.00,19.0,23.1,"05:04:16",1
"16/10/09","05:20",0.2,20.2,92.4,1001.0,322.6,0.8,2.4,40.0,0.00,19.0,23.1,"05:12:24",1
"16/10/09","05:30",0.4,20.2,92.9,1000.8,288.4,0.3,1.0,290.1,0.00,19.1,23.1,"05:20:32",1
"16/10/09","05:40",0.2,20.1,93.4,1001.0,139.9,0.1,0.8,13.5,0.00,19.0,22.8,"05:30:16",1
"16/10/09","05:50",0.0,20.1,93.6,1001.0,122.5,0.2,0.8,116.6,0.00,19.1,22.8,"05:45:36",1
"16/10/09","06:00",0.0,20.1,94.0,1001.9,193.6,0.6,1.7,201.7,0.00,19.1,22.8,"05:54:16",1
"16/10/09","06:10",0.2,20.3,93.9,1002.2,222.9,0.7,1.7,204.8,0.00,19.3,22.7,"06:08:24",1
"16/10/09","06:20",0.4,20.3,93.7,1002.2,220.7,0.5,1.3,231.1,0.00,19.3,22.9,"06:13:36",1
"16/10/09","06:30",0.2,20.3,93.8,1002.2,213.7,0.5,1.1,209.5,0.00,19.3,22.7,"06:24:24",1
"16/10/09","06:40",0.2,20.3,93.9,1002.9,293.3,0.3,1.3,243.2,0.00,19.3,22.6,"06:31:28",1
"16/10/09","06:50",0.0,20.2,94.2,1003.1,293.2,0.5,1.1,337.2,0.00,19.3,22.6,"06:40:24",1
"16/10/09","07:00",0.0,20.1,93.8,1003.1,290.7,0.5,1.6,348.2,0.00,19.1,22.7,"06:50:02",1
"16/10/09","07:10",0.0,20.0,93.3,1003.4,297.1,0.8,2.5,353.7,0.00,18.9,22.8,"07:03:28",1
"16/10/09","07:20",0.0,19.9,93.2,1003.4,297.8,0.6,1.8,310.9,0.00,18.8,22.5,"07:13:28",1
"16/10/09","07:30",0.0,20.0,93.0,1004.1,295.0,0.5,1.2,342.9,0.01,18.9,22.7,"07:24:32",1
"16/10/09","07:40",0.0,20.0,92.8,1004.1,302.7,0.7,1.3,255.3,0.01,18.8,22.7,"07:31:12",1
"16/10/09","07:50",0.0,20.0,92.7,1004.3,263.5,0.6,1.0,237.8,0.01,18.8,22.6,"07:46:24",1
"16/10/09","08:00",0.0,20.0,92.8,1005.0,280.0,0.6,1.4,237.3,0.02,18.8,22.7,"07:56:48",1
"16/10/09","08:10",0.0,20.2,91.9,1005.2,298.8,0.6,1.6,269.4,0.05,18.9,22.7,"08:00:02",1
"16/10/09","08:20",0.0,20.1,89.7,1005.5,338.3,1.5,3.5,352.1,0.04,18.4,22.6,"08:15:28",1
"16/10/09","08:30",0.0,20.0,86.7,1006.0,353.8,2.5,4.8,349.1,0.04,17.8,22.7,"08:25:04",1
"16/10/09","08:40",0.0,20.0,85.3,1006.2,346.7,1.6,4.0,354.6,0.04,17.5,22.6,"08:30:24",1
"16/10/09","08:50",0.0,20.3,83.7,1006.4,329.3,1.2,3.1,352.5,0.06,17.5,22.7,"08:43:36",1
"16/10/09","09:00",0.0,20.6,84.5,1006.7,330.7,1.2,2.9,8.3,0.07,17.9,22.5,"08:53:04",1
"16/10/09","09:10",0.0,20.7,82.7,1006.4,320.7,1.2,2.2,337.3,0.09,17.7,22.7,"09:05:44",1
"16/10/09","09:20",0.0,20.8,81.4,1006.2,310.5,0.8,1.6,325.6,0.09,17.5,22.7,"09:11:12",1
"16/10/09","09:30",0.0,20.9,79.9,1006.4,312.0,1.2,2.9,320.2,0.05,17.3,22.7,"09:27:44",1
"16/10/09","09:40",0.0,20.6,82.4,1006.7,306.1,1.2,3.5,342.4,0.03,17.5,22.8,"09:32:48",1
"16/10/09","09:50",0.0,20.4,83.5,1006.4,307.9,1.1,1.9,321.6,0.02,17.6,22.8,"09:47:44",1
"16/10/09","10:00",0.0,20.1,82.8,1006.4,327.8,1.6,3.4,354.6,0.02,17.1,22.7,"09:59:36",1
"16/10/09","10:10",0.0,20.0,83.1,1006.7,330.1,1.7,3.2,336.6,0.06,17.1,22.9,"10:03:44",1
"16/10/09","10:20",0.0,20.2,81.3,1006.9,342.7,2.1,5.4,0.3,0.12,16.9,22.7,"10:10:02",1
"16/10/09","10:30",0.0,20.8,79.1,1006.4,350.2,1.3,3.4,359.9,0.19,17.1,22.7,"10:25:52",1
"16/10/09","10:40",0.0,21.4,78.8,1006.7,326.9,1.2,2.7,349.9,0.23,17.6,22.9,"10:33:12",1
"16/10/09","10:50",0.0,21.9,76.0,1006.4,315.1,1.2,4.1,358.0,0.27,17.5,23.0,"10:44:16",1
"16/10/09","11:00",0.0,21.8,73.6,1006.4,344.8,1.5,3.6,335.9,0.24,16.9,23.1,"10:56:08",1
"16/10/09","11:10",0.0,22.2,72.2,1006.2,340.5,1.0,2.6,342.4,0.27,17.0,23.2,"11:01:44",1
"16/10/09","11:20",0.0,22.3,72.6,1006.2,321.5,1.2,4.1,231.4,0.24,17.2,23.1,"11:15:12",1
"16/10/09","11:30",0.0,21.8,74.5,1006.7,351.1,1.6,3.3,9.3,0.15,17.1,23.3,"11:24:16",1
"16/10/09","11:40",0.0,21.9,72.0,1006.2,6.0,1.3,2.7,13.0,0.22,16.7,23.2,"11:36:48",1
"16/10/09","11:50",0.0,22.4,71.7,1006.0,3.5,1.3,2.8,356.2,0.34,17.1,23.4,"11:42:40",1
"16/10/09","12:00",0.0,22.8,68.6,1006.0,2.9,1.3,3.5,346.9,0.32,16.8,23.6,"11:59:20",1
"16/10/09","12:10",0.0,22.5,69.4,1006.0,6.7,1.2,3.2,9.3,0.27,16.7,23.6,"12:07:20",1
"16/10/09","12:20",0.0,22.2,71.6,1006.0,0.2,1.7,4.2,7.2,0.16,16.9,23.6,"12:18:32",1
"16/10/09","12:30",0.2,21.6,69.9,1006.0,5.8,2.3,4.2,359.2,0.17,15.9,23.9,"12:22:08",1
"16/10/09","12:40",0.0,21.5,69.7,1005.5,4.2,2.7,5.4,18.4,0.18,15.8,23.8,"12:35:36",1
"16/10/09","12:50",0.0,21.5,71.9,1006.0,347.0,2.2,3.7,24.9,0.14,16.3,23.7,"12:41:04",1
"16/10/09","13:00",0.0,21.7,68.5,1005.5,337.9,1.6,3.6,48.3,0.19,15.7,24.0,"12:59:28",1
"16/10/09","13:10",0.0,22.1,68.2,1005.7,331.9,1.3,4.5,338.0,0.21,16.0,23.8,"13:05:28",1
"16/10/09","13:20",0.0,22.4,66.2,1006.0,343.3,2.1,5.4,353.4,0.32,15.8,23.7,"13:17:12",1
"16/10/09","13:30",0.0,22.7,64.3,1006.2,343.0,1.6,4.1,28.6,0.30,15.7,23.8,"13:22:32",1
"16/10/09","13:40",0.0,22.0,66.1,1006.0,345.0,2.1,4.2,2.9,0.20,15.4,23.7,"13:30:56",1
"16/10/09","13:50",0.0,21.7,67.8,1006.7,355.6,2.2,5.0,322.5,0.18,15.5,24.0,"13:44:48",1
"16/10/09","14:00",0.0,21.6,66.1,1006.0,353.3,2.0,4.9,357.8,0.19,15.0,23.9,"13:53:44",1
"16/10/09","14:10",0.0,21.6,66.2,1006.2,333.9,1.7,3.6,57.8,0.18,15.1,23.9,"14:00:40",1
"16/10/09","14:20",0.0,21.8,63.2,1006.0,336.3,1.2,2.8,328.8,0.22,14.5,23.9,"14:10:08",1
"16/10/09","14:30",0.0,22.4,61.1,1006.2,334.8,1.3,4.3,1.3,0.29,14.6,23.9,"14:21:20",1
"16/10/09","14:40",0.0,22.6,59.4,1006.4,335.4,1.5,3.5,340.8,0.26,14.3,24.0,"14:32:56",1
"16/10/09","14:50",0.0,21.8,61.8,1006.2,333.8,1.7,5.2,345.1,0.14,14.2,24.0,"14:45:36",1
"16/10/09","15:00",0.0,21.5,62.9,1006.0,319.9,1.2,2.9,349.8,0.11,14.2,23.9,"14:59:52",1
"16/10/09","15:10",0.0,21.8,63.8,1006.0,328.5,1.2,2.9,350.7,0.15,14.7,24.0,"15:04:56",1
"16/10/09","15:20",0.0,21.6,62.2,1006.2,341.5,1.5,4.7,346.3,0.09,14.1,23.9,"15:19:44",1
"16/10/09","15:30",0.0,21.0,64.8,1006.4,331.4,1.8,3.3,357.7,0.09,14.2,23.9,"15:25:20",1
"16/10/09","15:40",0.0,21.0,65.0,1006.7,328.4,1.6,4.0,348.0,0.13,14.2,23.8,"15:33:04",1
"16/10/09","15:50",0.0,20.7,66.6,1006.4,339.0,1.8,4.1,359.8,0.07,14.3,23.6,"15:49:12",1
"16/10/09","16:00",0.0,20.4,68.1,1006.4,341.3,1.7,4.1,355.9,0.07,14.4,23.8,"15:59:36",1
"16/10/09","16:10",0.0,20.5,69.2,1006.7,343.1,2.0,6.6,348.5,0.06,14.7,23.7,"16:05:52",1
"16/10/09","16:20",0.0,20.2,68.3,1006.7,349.3,2.6,5.6,2.7,0.02,14.2,23.4,"16:19:20",1
"16/10/09","16:30",0.0,20.1,69.4,1007.4,339.7,2.0,4.2,350.7,0.02,14.4,23.2,"16:20:08",1
"16/10/09","16:40",0.0,19.9,70.7,1006.9,332.7,1.7,3.5,344.1,0.01,14.5,23.5,"16:33:04",1
"16/10/09","16:50",0.0,19.7,70.4,1007.4,320.1,1.6,4.1,339.8,0.01,14.2,23.3,"16:42:32",1
"16/10/09","17:00",0.0,19.5,70.6,1007.6,340.7,2.1,5.1,345.0,0.01,14.1,23.2,"16:55:52",1
"16/10/09","17:10",0.0,19.3,71.1,1007.4,341.4,1.7,3.1,355.0,0.00,14.0,23.0,"17:04:00",1
"16/10/09","17:20",0.0,19.0,72.3,1007.6,332.2,1.6,3.1,341.7,0.00,13.9,22.8,"17:14:40",1
"16/10/09","17:30",0.0,18.7,73.5,1007.6,336.6,1.5,2.9,347.2,0.00,13.9,22.7,"17:23:36",1
"16/10/09","17:40",0.0,18.3,75.6,1008.1,324.4,1.5,2.8,341.2,0.00,14.0,22.8,"17:36:16",1
"16/10/09","17:50",0.0,18.0,76.9,1007.8,317.9,1.2,2.8,333.0,0.00,13.9,22.7,"17:45:20",1
"16/10/09","18:00",0.0,17.7,77.6,1008.1,316.6,1.0,1.9,328.0,0.00,13.8,22.5,"17:52:08",1
"16/10/09","18:10",0.0,17.4,80.3,1008.1,347.4,1.0,2.1,354.4,0.00,14.0,22.3,"18:00:24",1
"16/10/09","18:20",0.0,17.0,83.1,1007.8,322.0,1.1,1.7,337.3,0.00,14.2,22.5,"18:16:08",1
"16/10/09","18:30",0.0,16.6,86.2,1008.3,318.2,1.1,1.8,340.3,0.00,14.3,22.2,"18:22:56",1
"16/10/09","18:40",0.0,16.5,87.5,1008.8,306.7,0.8,1.7,327.5,0.00,14.5,22.2,"18:34:08",1
"16/10/09","18:50",0.0,16.5,87.6,1008.6,295.9,0.7,1.3,308.2,0.00,14.5,22.2,"18:49:44",1
"16/10/09","19:00",0.0,16.7,87.4,1008.6,308.1,1.0,1.8,337.8,0.00,14.6,22.1,"18:53:36",1
"16/10/09","19:10",0.0,16.7,85.7,1008.8,290.1,1.1,1.7,336.9,0.00,14.3,22.1,"19:08:00",1
"16/10/09","19:20",0.0,17.1,84.8,1008.8,303.9,1.0,2.4,326.9,0.00,14.6,21.9,"19:18:24",1
"16/10/09","19:30",0.0,17.0,82.8,1008.8,293.7,1.0,1.4,343.5,0.00,14.1,21.9,"19:20:40",1
"16/10/09","19:40",0.0,17.1,83.7,1009.0,320.6,1.2,2.0,339.4,0.00,14.4,22.0,"19:30:56",1
"16/10/09","19:50",0.0,16.9,84.1,1009.0,302.3,0.8,1.3,318.3,0.00,14.2,21.8,"19:40:08",1
"16/10/09","20:00",0.0,16.9,83.9,1009.0,311.5,1.0,1.3,334.7,0.00,14.2,22.0,"19:58:56",1
"16/10/09","20:10",0.0,17.1,83.7,1009.3,319.7,1.1,2.1,346.0,0.00,14.4,21.7,"20:08:40",1
"16/10/09","20:20",0.0,17.0,83.2,1009.0,311.6,1.0,1.4,323.3,0.00,14.2,21.8,"20:10:24",1
"16/10/09","20:30",0.0,16.9,82.2,1009.3,312.2,1.0,1.4,309.1,0.00,13.9,21.6,"20:25:52",1
"16/10/09","20:40",0.0,16.8,81.8,1009.3,315.1,1.2,2.4,332.3,0.00,13.7,21.7,"20:30:48",1
"16/10/09","20:50",0.0,16.9,82.0,1009.7,314.1,1.1,1.4,304.5,0.00,13.8,21.7,"20:42:00",1
"16/10/09","21:00",0.0,16.9,82.1,1009.7,320.9,1.1,1.8,330.4,0.00,13.9,21.7,"20:57:36",1
"16/10/09","21:10",0.0,16.9,82.2,1010.0,304.8,0.8,1.4,306.1,0.00,13.9,21.6,"21:09:04",1
"16/10/09","21:20",0.0,16.9,81.8,1010.7,310.3,1.0,1.3,300.6,0.00,13.8,21.8,"21:12:08",1
"16/10/09","21:30",0.0,16.8,82.2,1010.2,308.7,1.0,1.6,309.2,0.00,13.8,21.5,"21:25:28",1
"16/10/09","21:40",0.0,16.7,82.5,1010.2,318.2,1.1,2.0,335.8,0.00,13.7,21.5,"21:34:40",1
"16/10/09","21:50",0.0,16.7,81.9,1010.7,320.4,1.2,2.1,318.9,0.00,13.6,21.6,"21:44:32",1
"16/10/09","22:00",0.0,16.7,81.7,1010.2,314.2,1.2,1.9,318.8,0.00,13.6,21.6,"21:52:08",1
"16/10/09","22:10",0.0,16.7,81.7,1010.4,321.5,1.1,2.5,341.7,0.00,13.6,21.3,"22:04:48",1
"16/10/09","22:20",0.0,16.6,81.7,1010.0,318.1,1.2,2.0,321.0,0.00,13.5,21.2,"22:17:12",1
"16/10/09","22:30",0.0,16.5,81.7,1010.2,315.5,1.1,2.1,336.5,0.00,13.4,21.4,"22:20:02",1
"16/10/09","22:40",0.0,16.4,82.1,1010.4,317.1,1.1,1.8,309.1,0.00,13.4,21.4,"22:30:24",1
"16/10/09","22:50",0.0,16.4,82.9,1010.4,333.2,1.5,2.2,329.1,0.00,13.5,21.2,"22:48:00",1
"16/10/09","23:00",0.0,16.3,84.6,1010.2,330.5,1.3,1.9,351.0,0.00,13.7,21.3,"22:50:08",1
"16/10/09","23:10",0.0,16.2,86.2,1010.2,310.0,1.1,1.6,330.9,0.00,13.9,21.2,"23:06:32",1
"16/10/09","23:20",0.0,16.1,86.4,1010.4,317.9,1.1,1.4,318.6,0.00,13.9,21.2,"23:10:32",1
"16/10/09","23:30",0.0,16.2,86.7,1010.2,323.0,1.2,2.1,343.8,0.00,14.0,21.1,"23:25:04",1
"16/10/09","23:40",0.0,16.1,86.7,1010.7,309.0,1.1,1.6,333.1,0.00,13.9,21.1,"23:30:24",1
"16/10/09","23:50",0.0,16.0,86.5,1010.9,318.8,1.1,2.2,333.9,0.00,13.8,21.0,"23:48:08",1
"16/10/09","24:00",0.0,16.1,85.8,1010.9,327.0,1.2,2.1,340.4,0.00,13.8,21.1,"23:50:32",1
